Terminal Aerodrome Forecast
Issued by NWS Portland, OR

Home | Current Version | Previous Version | Text Only | Print | Product List | Glossary On
Versions: 1 2 3 4 5 6 7 8 9 10 11 12 13 14 15 16 17 18 19 20 21 22 23 24 25 26 27 28 29 30 31 32 33 34
000
FTUS46 KPQR 011127
TAFEUG
TAF
KEUG 011127Z 0112/0212 VRB04KT P6SM VCSH SCT070
     FM011700 01008KT P6SM SKC
     FM012000 34015KT P6SM SKC
     FM020600 VRB04KT P6SM SKC=

USA.gov is the U.S. government's official web portal to all federal, state and local government web resources and services.